Temp
60 51 44 49 52 52 51 48 47 50 56 50 47 49 52 54 53 50 49 49 50 51 52 56 58 58 57 57 56 56 56 55 54 52 50 50 49 51 52 53 56 58 58 58
51 45 54 59 56 52 50 46 44 49 55 51 47 47 48 52 50 51 50 48 49 51 52 53 56 55 55 54 53 55 55 56 55 52 52 51 50 51 51 53 54 55 57 57
46 51 61 58 50 48 47 42 42 42 48 49 47 41 43 48 51 52 50 49 49 49 49 51 53 51 52 52 52 56 55 56 55 54 52 52 51 50 49 50 50 53 55 56
50 56 55 52 50 48 40 50 49 47 40 32 45 28 39 42 44 46 43 44 45 47 50 51 52 52 52 53 53 54 55 55 56 54 51 49 47 46 48 49 50 52 53 54
45 48 49 48 49 51 45 50 48 46 38 34 38 32 31 42 40 41 43 45 46 47 48 49 49 52 53 52 51 51 53 53 56 54 53 50 51 49 49 48 49 50 51 52
49 56 52 49 53 53 51 47 43 41 36 28 34 33 28 34 40 41 44 46 48 48 49 50 51 52 51 51 52 51 52 52 53 52 53 51 49 49 48 48 48 50 49 49
48 48 51 54 46 49 45 35 27 28 28 29 40 32 30 40 45 44 45 45 48 46 47 48 49 48 50 50 50 52 51 50 51 51 50 50 49 48 47 49 51 50 49 48
34 36 46 52 45 39 41 36 25 21 21 28 36 27 33 43 47 46 48 46 48 48 48 48 48 48 48 50 49 49 49 49 50 50 49 48 48 47 48 49 50 49 49 50
32 36 49 51 49 46 39 31 38 28 26 20 26 34 44 44 41 43 44 46 44 45 46 46 47 48 48 48 49 49 49 49 50 49 48 48 48 48 50 48 48 48 49 52
37 29 44 50 50 47 42 43 29 26 13 16 22 27 24 32 33 37 37 39 40 43 47 48 49 49 49 48 48 48 49 48 48 48 48 53 49 49 51 49 47 49 49 48
39 34 36 43 38 34 35 31 32 29 28 17 16 20 38 33 35 34 36 39 40 44 46 48 49 52 47 48 48 49 49 48 47 48 48 50 49 50 50 48 50 48 49 52
39 32 26 31 42 45 40 33 30 16 19 24 15 20 39 36 37 38 38 40 43 48 47 48 48 49 49 48 46 48 49 46 49 48 52 51 50 50 48 50 49 50 50 51
37 29 19 26 33 37 33 33 35 32 25 18 16 20 41 35 36 37 37 42 44 45 45 46 48 48 49 50 50 50 46 49 50 52 51 50 49 48 48 49 49 51 52 51
42 30 25 18 25 27 25 30 31 28 14 16 19 22 30 31 33 36 38 41 42 43 44 45 45 47 49 49 50 49 51 52 52 51 51 48 49 49 49 50 50 51 51 49
35 24 28 31 33 34 32 30 30 21 26 10 23 23 29 31 33 36 39 41 41 41 43 44 45 46 48 49 50 51 52 52 52 51 49 49 49 50 49 48 49 50 49 49
34 24 26 24 32 32 29 32 32 31 30 27 28 25 32 37 38 37 39 40 39 41 42 44 46 47 48 48 50 50 50 51 51 50 49 50 50 48 48 48 48 47 47 47
28 24 19 16 27 26 21 28 28 29 31 30 20 27 35 33 36 36 37 39 39 41 43 44 45 46 48 48 50 48 49 50 49 48 48 48 47 46 46 47 46 45 45 46
28 23 18 11 20 9 26 36 35 30 32 31 30 32 33 34 37 39 40 40 41 42 43 44 46 46 48 48 48 49 49 48 46 45 46 46 47 46 45 45 45 45 45 44
34 24 9 7 12 21 26 31 29 26 26 32 30 32 34 37 37 37 42 43 43 43 45 46 47 47 48 47 48 48 46 44 45 45 44 45 45 44 43 43 43 44 43 43
33 27 14 6 3 11 23 34 38 34 19 33 33 32 33 34 26 32 41 43 44 46 47 47 48 48 47 47 47 44 43 43 43 43 43 45 44 43 42 43 43 43 43 43
16 11 8 12 3 19 31 36 38 18 21 33 36 35 35 32 35 39 43 44 46 47 47 48 47 46 46 46 44 41 41 40 42 43 43 43 44 43 44 44 43 43 43 46
19 7 7 9 2 12 36 34 24 31 37 38 38 38 37 39 41 42 43 44 45 45 46 46 45 44 46 45 42 39 38 40 42 42 42 42 43 44 45 43 43 45 48 46
18 22 13 17 20 33 35 35 37 39 37 39 38 40 40 39 40 43 42 44 45 45 45 46 44 41 42 42 40 38 39 41 41 41 41 42 43 44 45 43 43 46 46 45
27 31 22 23 29 33 37 37 40 41 39 41 42 42 42 40 42 41 43 43 43 44 44 45 42 39 38 39 40 40 41 42 42 41 41 42 43 44 44 45 47 46 45 43
28 27 26 25 30 34 35 38 39 40 42 42 43 43 42 42 41 42 42 42 43 44 44 42 39 38 37 38 38 41 43 44 44 43 42 43 44 43 45 47 46 46 46 45
30 28 22 20 31 29 31 38 41 40 40 42 42 42 42 42 41 42 41 43 44 43 43 39 38 38 38 38 39 43 45 45 43 41 43 44 43 46 46 45 44 47 47 48
MSLP
1015.68 1017.14 1018.54 1018.68 1018.70 1018.81 1018.73 1018.59 1018.27 1017.41 1017.41 1017.49 1017.13 1017.60 1017.24 1017.15 1018.05 1019.25 1020.05 1020.34 1020.52 1020.49 1020.28 1019.98 1019.70 1019.60 1019.55 1019.33 1019.19 1018.74 1018.35 1017.98 1017.53 1017.62 1017.85 1017.63 1017.72 1017.40 1016.85 1016.16 1015.65 1014.97 1014.49 1014.12
1017.71 1019.13 1019.21 1019.20 1019.47 1019.73 1019.49 1019.40 1019.36 1018.65 1018.29 1018.84 1018.34 1018.91 1019.10 1019.05 1019.69 1020.04 1020.63 1021.00 1021.12 1020.95 1020.89 1020.63 1020.35 1020.00 1019.80 1019.72 1019.29 1018.79 1018.32 1017.95 1017.49 1017.18 1017.10 1017.10 1016.96 1016.73 1016.49 1015.88 1015.39 1015.03 1014.51 1014.03
1018.97 1020.02 1019.49 1019.72 1020.45 1020.66 1020.61 1020.57 1020.44 1020.51 1020.02 1019.12 1019.35 1020.18 1020.47 1020.83 1021.02 1021.34 1021.61 1021.91 1021.80 1021.72 1021.51 1021.23 1020.83 1020.73 1020.19 1019.68 1019.28 1018.76 1018.31 1017.78 1017.20 1016.92 1016.74 1016.64 1016.51 1016.40 1016.16 1015.59 1015.21 1014.71 1014.33 1013.85
1020.35 1020.81 1020.43 1020.61 1021.22 1021.67 1021.50 1021.17 1021.10 1020.83 1021.50 1021.38 1021.18 1021.85 1021.75 1021.98 1022.23 1022.37 1022.53 1022.39 1022.28 1021.82 1021.47 1021.27 1020.95 1020.68 1020.36 1019.94 1019.49 1018.82 1018.47 1017.65 1016.92 1016.52 1016.48 1016.40 1016.48 1016.27 1015.50 1015.18 1014.53 1014.32 1013.88 1013.30
1021.79 1021.72 1021.58 1021.90 1022.31 1022.24 1022.40 1022.09 1021.08 1020.93 1021.89 1022.19 1022.59 1022.74 1023.23 1022.79 1023.13 1023.27 1023.08 1022.73 1022.47 1022.04 1021.76 1021.44 1021.01 1020.63 1020.07 1019.62 1018.97 1018.59 1017.97 1017.32 1016.72 1016.40 1016.16 1016.23 1015.75 1015.35 1014.62 1014.36 1013.98 1013.60 1013.16 1012.76
1022.49 1022.11 1022.64 1023.03 1022.62 1022.80 1022.65 1022.03 1021.09 1021.10 1022.31 1023.18 1023.35 1023.68 1024.12 1024.28 1024.62 1024.27 1024.03 1023.63 1023.33 1022.64 1022.17 1021.52 1020.96 1020.50 1019.98 1019.27 1018.68 1018.21 1017.74 1017.36 1016.79 1016.39 1016.01 1015.72 1015.50 1014.95 1014.51 1014.02 1013.51 1012.94 1012.55 1012.08
1023.51 1023.48 1023.40 1023.34 1023.69 1023.61 1023.76 1023.81 1023.81 1023.79 1024.13 1024.31 1023.50 1024.15 1024.81 1025.00 1024.93 1024.54 1024.15 1023.73 1023.35 1022.88 1022.36 1021.92 1021.30 1020.66 1020.04 1019.21 1018.49 1018.13 1017.84 1017.37 1016.76 1016.22 1015.75 1015.25 1014.87 1014.45 1014.06 1013.55 1012.95 1012.31 1011.92 1011.60
1025.79 1024.23 1024.30 1024.16 1024.74 1025.21 1025.45 1026.08 1027.80 1028.20 1027.73 1026.42 1025.25 1025.02 1024.98 1025.06 1025.44 1025.25 1024.68 1024.55 1024.06 1023.45 1022.79 1022.11 1021.25 1020.43 1019.78 1018.89 1018.42 1018.03 1017.56 1017.04 1016.47 1015.89 1015.40 1014.89 1014.46 1014.05 1013.51 1012.81 1012.23 1011.84 1011.32 1010.82
1027.53 1026.14 1025.16 1024.78 1025.05 1025.69 1026.50 1027.54 1028.37 1029.07 1029.06 1028.43 1026.68 1025.25 1023.82 1024.69 1025.71 1025.69 1025.68 1025.06 1024.48 1023.84 1022.80 1022.08 1021.23 1020.20 1019.41 1018.87 1018.44 1017.95 1017.32 1016.67 1016.13 1015.57 1014.91 1014.36 1013.79 1013.34 1012.78 1012.10 1011.53 1011.10 1010.59 1010.13
1028.93 1028.20 1026.26 1025.61 1025.69 1026.46 1027.02 1027.83 1029.02 1030.53 1030.96 1030.55 1028.14 1027.39 1027.16 1027.19 1027.83 1027.44 1026.71 1026.26 1025.54 1024.45 1022.84 1022.38 1021.40 1020.11 1019.20 1018.54 1018.04 1017.36 1016.86 1016.28 1015.66 1015.08 1014.50 1013.85 1013.27 1012.59 1011.91 1011.42 1010.98 1010.38 1009.92 1009.49
1030.44 1030.02 1028.21 1027.17 1027.66 1027.84 1028.44 1029.84 1031.04 1032.15 1032.51 1032.20 1030.61 1029.38 1029.18 1029.83 1029.33 1028.43 1027.81 1026.81 1025.56 1024.38 1023.07 1022.29 1021.34 1020.24 1019.39 1018.56 1017.92 1017.16 1016.49 1015.87 1015.31 1014.60 1013.90 1013.22 1012.58 1011.80 1011.16 1010.68 1010.03 1009.52 1009.02 1008.62
1031.55 1031.66 1031.11 1029.80 1029.08 1029.21 1029.98 1031.40 1032.33 1033.32 1033.86 1033.64 1032.92 1030.65 1029.78 1029.89 1029.90 1029.35 1028.11 1026.59 1025.40 1024.16 1023.13 1022.20 1021.21 1020.21 1019.26 1018.45 1017.69 1016.86 1016.14 1015.53 1014.84 1013.95 1013.07 1012.40 1011.74 1011.07 1010.52 1009.77 1009.12 1008.59 1008.01 1007.54
1031.68 1032.28 1032.65 1031.55 1031.00 1030.62 1031.18 1032.14 1032.66 1033.24 1033.74 1034.16 1034.30 1031.56 1030.73 1030.65 1029.60 1028.68 1027.61 1026.09 1025.05 1024.09 1022.98 1022.08 1021.02 1020.01 1019.01 1018.02 1017.12 1016.36 1015.66 1014.84 1013.99 1013.09 1012.42 1011.67 1010.98 1010.45 1009.79 1009.03 1008.37 1007.63 1006.97 1006.52
1032.37 1033.36 1034.11 1034.48 1033.29 1032.49 1032.41 1032.55 1032.83 1033.40 1034.28 1034.24 1033.73 1032.19 1030.97 1030.37 1029.49 1028.17 1027.00 1025.87 1024.99 1023.97 1023.03 1022.06 1020.84 1019.76 1018.63 1017.62 1016.68 1015.89 1014.97 1014.10 1013.24 1012.50 1011.76 1011.03 1010.41 1009.65 1008.94 1008.19 1007.66 1007.08 1006.43 1005.97
1033.55 1034.53 1034.84 1034.67 1034.06 1033.38 1033.19 1033.25 1033.19 1033.90 1034.11 1034.50 1033.54 1032.51 1031.41 1030.68 1029.53 1028.16 1026.94 1025.64 1024.59 1023.65 1022.75 1021.72 1020.61 1019.34 1018.20 1017.13 1016.10 1015.24 1014.24 1013.43 1012.64 1011.84 1011.12 1010.43 1009.55 1008.83 1008.35 1007.92 1007.26 1006.59 1005.93 1005.19
1034.47 1035.27 1035.41 1035.51 1034.68 1034.05 1033.73 1033.58 1033.59 1033.95 1034.20 1034.16 1033.29 1032.44 1031.73 1030.38 1029.24 1027.92 1026.74 1025.43 1024.41 1023.45 1022.41 1021.27 1020.12 1018.94 1017.71 1016.67 1015.64 1014.52 1013.66 1012.85 1012.10 1011.36 1010.49 1009.68 1008.97 1008.51 1007.83 1007.13 1006.68 1006.00 1005.17 1004.14
1035.53 1036.58 1036.86 1036.93 1036.01 1034.88 1034.83 1034.83 1034.60 1034.46 1033.94 1033.69 1033.47 1033.05 1031.60 1030.01 1028.81 1027.63 1026.26 1025.21 1024.24 1023.07 1022.04 1020.84 1019.72 1018.52 1017.32 1016.28 1015.14 1014.08 1013.10 1012.30 1011.59 1010.87 1010.01 1009.28 1008.75 1007.87 1007.32 1006.81 1006.26 1005.36 1004.33 1003.20
1036.06 1037.33 1038.56 1038.92 1037.83 1036.55 1036.08 1034.84 1034.36 1033.92 1033.50 1033.56 1033.51 1032.44 1031.82 1030.38 1028.83 1027.53 1026.28 1025.31 1024.08 1022.85 1021.60 1020.39 1019.12 1017.95 1016.91 1015.76 1014.62 1013.54 1012.77 1012.00 1011.38 1010.58 1009.71 1009.11 1008.26 1007.48 1006.91 1006.32 1005.70 1004.92 1003.93 1002.71
1036.43 1038.16 1040.18 1040.56 1039.97 1037.69 1036.14 1035.38 1034.87 1034.27 1033.23 1033.61 1033.43 1031.83 1031.06 1029.50 1028.13 1026.58 1025.97 1025.01 1023.81 1022.44 1021.01 1019.76 1018.61 1017.48 1016.34 1015.23 1014.15 1013.20 1012.44 1011.75 1010.81 1009.87 1009.42 1008.78 1008.17 1007.27 1006.66 1006.03 1005.28 1004.54 1003.29 1001.91
1037.48 1038.80 1040.93 1041.68 1041.00 1038.75 1037.18 1035.69 1034.61 1033.89 1033.51 1032.96 1032.80 1032.03 1030.67 1029.49 1028.02 1026.13 1024.75 1023.86 1022.69 1021.55 1020.35 1019.10 1017.98 1017.01 1016.00 1014.84 1014.04 1013.28 1012.27 1011.36 1010.39 1009.74 1009.13 1008.65 1008.06 1007.24 1006.63 1005.66 1004.93 1004.09 1002.95 1001.93
1038.79 1040.27 1041.95 1041.67 1040.97 1038.35 1036.71 1035.26 1034.30 1034.30 1034.20 1033.12 1032.25 1031.33 1030.36 1029.55 1028.55 1026.41 1024.83 1023.41 1022.31 1021.03 1019.81 1018.68 1017.72 1016.77 1015.69 1014.82 1013.99 1012.89 1011.84 1011.07 1010.36 1009.57 1008.92 1008.35 1007.80 1007.21 1006.49 1005.59 1004.90 1004.13 1002.92 1002.11
1039.32 1040.87 1041.57 1041.17 1040.35 1037.76 1035.77 1035.24 1035.48 1035.08 1033.93 1033.03 1031.89 1030.76 1029.69 1028.44 1027.03 1025.69 1024.39 1023.03 1021.70 1020.45 1019.27 1018.42 1017.36 1016.47 1015.31 1014.60 1013.63 1012.51 1011.54 1010.79 1010.05 1009.35 1008.79 1008.27 1007.61 1006.96 1006.33 1005.62 1004.53 1003.85 1003.35 1003.05
1038.89 1039.44 1040.19 1039.94 1038.39 1036.65 1035.97 1035.40 1034.62 1034.23 1033.32 1032.28 1031.35 1030.10 1028.98 1027.74 1026.40 1025.27 1024.06 1022.88 1021.69 1020.59 1019.50 1018.48 1017.64 1016.42 1015.35 1014.42 1013.46 1012.24 1011.24 1010.33 1009.54 1009.03 1008.54 1008.27 1007.52 1006.72 1006.04 1005.45 1005.04 1004.72 1004.44 1004.39
1038.20 1038.04 1038.84 1038.79 1037.69 1036.70 1035.63 1034.88 1034.30 1033.39 1032.63 1031.60 1030.64 1029.63 1028.43 1027.32 1026.18 1025.11 1024.08 1022.92 1021.73 1020.62 1019.39 1018.47 1017.60 1016.48 1015.12 1014.19 1013.08 1012.07 1011.04 1010.15 1009.34 1008.96 1008.44 1008.04 1007.39 1006.57 1006.00 1005.69 1005.68 1005.70 1005.82 1005.80
1038.07 1038.04 1038.30 1038.06 1037.16 1036.06 1035.23 1034.81 1034.08 1032.95 1031.93 1030.94 1030.05 1029.15 1028.12 1027.24 1026.27 1025.29 1024.22 1023.09 1021.91 1020.72 1019.58 1018.99 1017.95 1016.75 1015.50 1014.35 1013.02 1011.80 1010.88 1009.93 1009.18 1009.11 1008.68 1008.09 1007.51 1006.99 1006.57 1006.60 1006.69 1006.73 1007.14 1007.13
1037.62 1037.81 1038.28 1037.85 1037.17 1036.69 1035.41 1034.56 1033.78 1032.78 1031.74 1030.69 1029.71 1028.74 1028.10 1027.38 1026.50 1025.42 1024.44 1023.34 1022.15 1020.91 1019.91 1019.16 1018.03 1016.65 1015.42 1014.34 1013.06 1011.64 1010.73 1010.18 1009.73 1009.36 1008.98 1008.59 1008.12 1007.90 1007.75 1007.82 1008.04 1008.47 1008.66 1008.68
Wind_Speed
7 11 6 6 6 4 6 4 8 5 5 11 5 14 10 5 11 13 9 9 9 8 2 6 7 7 8 8 7 6 3 3 2 1 2 2 3 4 4 5 8 11 8 10
8 7 6 5 10 9 8 6 6 10 10 11 8 12 10 12 8 10 11 9 9 10 11 10 9 9 9 8 7 9 6 4 2 1 3 3 3 3 4 4 6 8 10 10
8 3 8 6 8 10 6 2 5 8 12 9 6 4 5 6 11 13 11 7 8 7 8 8 8 7 7 9 9 9 7 6 5 5 2 3 3 3 3 4 4 5 7 10
7 8 7 8 5 5 6 3 9 16 6 3 7 6 4 4 8 9 9 9 7 8 7 7 8 8 8 9 9 9 9 8 7 5 3 5 4 5 5 4 4 6 7 8
2 5 7 7 6 5 7 12 19 17 6 2 9 4 2 6 7 8 8 7 8 7 6 6 6 6 7 6 5 7 7 8 10 8 5 5 10 7 5 4 7 7 8 7
4 2 4 4 9 4 11 10 12 3 5 3 3 5 4 4 5 5 6 9 9 9 8 8 7 7 7 8 8 8 8 8 8 7 9 9 10 10 8 7 7 7 6 5
5 2 1 4 6 9 11 8 7 8 7 5 16 7 5 5 15 7 14 10 12 8 8 8 8 8 8 8 8 7 7 8 8 8 9 9 9 8 9 11 10 10 7 4
6 6 6 4 4 3 6 5 4 6 5 15 10 4 5 7 17 6 9 7 11 9 9 9 9 8 8 8 8 8 8 9 9 9 9 8 8 5 6 8 9 8 7 7
6 5 3 3 2 3 7 6 3 3 4 2 5 5 15 25 22 25 20 19 12 12 12 11 11 9 9 8 8 8 8 9 10 9 8 8 7 8 10 10 7 7 8 8
2 5 4 6 4 4 5 2 5 4 5 6 7 10 5 19 19 19 20 19 19 21 20 17 16 14 8 7 7 8 9 9 9 9 7 11 10 9 10 9 8 9 9 7
6 2 8 6 6 2 5 5 5 2 3 4 7 4 14 15 16 19 19 16 15 17 16 19 19 17 8 8 8 10 12 9 8 8 8 12 12 12 11 9 10 8 9 12
4 1 5 2 3 7 7 4 4 5 7 5 5 12 18 14 14 16 16 17 19 19 17 20 15 13 14 12 10 10 12 8 11 9 13 14 14 12 11 12 12 10 12 12
3 2 5 8 5 7 5 4 5 5 1 6 7 8 14 10 17 17 18 21 17 18 21 17 16 16 17 16 14 13 9 13 12 14 14 15 14 12 13 14 13 12 13 11
4 3 5 6 8 5 6 7 5 3 2 6 5 17 16 17 20 21 21 18 17 17 17 18 18 19 18 15 15 13 16 15 15 14 16 14 15 14 14 14 13 12 10 13
4 2 3 8 11 11 6 4 7 4 5 3 13 15 15 15 20 20 19 20 20 17 20 19 21 20 19 20 16 18 17 17 18 17 15 16 15 15 10 11 11 14 15 16
3 2 3 4 9 9 4 4 6 6 10 9 16 20 8 17 16 18 20 23 16 20 20 24 23 23 22 19 20 19 18 19 17 18 17 17 16 14 17 14 15 15 17 17
3 1 3 5 11 11 4 8 6 7 12 12 9 13 20 22 20 20 23 20 16 22 24 24 23 22 21 19 20 18 20 19 17 17 17 16 18 17 15 15 15 16 17 18
2 3 3 3 8 5 4 8 8 13 17 6 16 21 20 21 21 19 16 15 22 24 24 23 21 20 19 19 19 20 19 16 17 19 18 16 15 15 15 15 14 16 15 17
4 4 3 3 1 7 8 11 10 13 16 11 22 23 23 22 20 15 13 19 22 23 22 20 18 20 20 20 20 22 18 18 19 17 16 15 15 15 14 14 14 14 15 16
4 6 6 4 2 2 4 12 15 9 5 17 19 21 22 23 15 18 26 25 24 24 21 20 21 21 19 21 21 19 22 19 19 16 17 14 14 13 13 14 13 12 15 13
3 4 3 2 3 6 7 12 12 9 10 20 18 19 21 15 12 23 23 22 22 21 23 22 20 20 21 21 22 21 18 17 16 16 15 13 12 12 12 13 10 10 12 7
3 4 3 2 4 4 10 8 8 7 14 17 18 19 19 20 21 21 22 22 22 24 24 23 21 21 22 22 18 19 19 16 15 14 12 12 12 10 9 10 11 9 9 10
2 7 5 8 6 6 2 9 5 12 15 16 18 21 20 21 21 21 21 20 21 23 21 21 22 25 22 20 19 18 17 16 14 12 11 10 11 10 8 8 8 8 9 10
3 2 2 4 4 7 15 6 10 14 15 18 19 20 18 18 19 18 18 19 19 20 21 22 25 23 23 21 20 17 16 15 12 9 9 8 9 11 9 4 6 8 7 8
5 3 3 4 5 11 2 9 14 17 18 18 15 18 17 14 15 17 18 20 19 20 22 21 22 22 23 21 20 18 15 13 9 5 6 7 7 8 7 10 9 9 9 9
0 0 2 5 6 5 9 15 16 16 18 17 17 17 12 12 17 18 18 17 18 21 22 21 23 22 22 19 19 16 11 8 7 5 5 5 5 7 8 11 13 27 23 22
Wind_Direction
28 60 39 351 28 3 286 269 295 275 351 2 304 300 311 334 78 75 61 55 48 37 352 39 20 11 14 3 343 336 320 303 47 35 344 351 310 296 310 314 327 332 332 332
35 55 329 20 37 11 350 310 318 296 2 322 326 335 58 59 77 79 74 52 44 26 17 360 1 11 2 340 332 320 304 325 305 210 233 209 247 275 267 292 305 310 319 319
97 318 325 81 38 9 339 15 307 275 340 306 354 20 42 28 62 51 38 45 41 37 14 355 4 353 339 340 328 333 290 281 280 246 264 290 298 297 287 281 275 274 295 302
66 356 16 50 49 33 307 330 314 302 356 301 24 284 63 59 59 45 26 26 13 3 358 359 1 347 334 321 314 314 297 290 284 269 268 249 265 260 238 252 255 279 273 280
350 26 33 38 322 338 276 317 283 288 230 7 343 58 1 32 25 13 6 6 349 336 347 339 323 300 280 279 296 305 310 324 320 288 293 270 283 263 255 255 264 264 270 261
74 66 52 344 303 38 338 305 312 39 111 94 220 180 316 42 3 351 348 339 333 333 332 319 301 310 312 314 322 321 325 322 326 314 295 287 270 274 279 272 270 270 258 259
343 34 88 8 5 357 2 2 346 2 5 246 4 5 203 96 23 22 355 355 349 343 335 321 318 308 304 312 316 322 328 314 307 306 297 290 286 286 278 286 292 284 271 253
33 337 20 350 88 307 333 52 90 306 322 299 316 179 205 69 15 14 341 359 349 327 326 315 302 300 302 302 315 320 315 307 300 294 296 293 287 277 275 280 282 278 275 270
21 292 355 77 107 54 336 34 201 247 276 331 261 299 322 5 15 8 3 350 339 328 324 317 308 304 299 316 308 299 302 300 301 297 293 290 282 282 287 278 268 272 277 282
3 296 304 317 75 33 97 221 8 5 319 303 288 315 274 5 354 354 356 350 343 336 341 332 322 313 310 315 302 306 303 289 288 291 293 306 287 278 284 283 271 277 278 266
12 66 302 8 18 359 14 20 30 306 283 281 301 293 340 356 354 355 337 329 327 317 315 334 320 327 311 318 314 310 306 298 295 292 292 298 292 288 284 273 283 267 272 284
353 73 306 349 308 108 91 72 99 122 290 237 245 295 7 9 348 326 318 318 314 326 332 321 313 328 326 319 304 307 302 296 299 283 305 299 295 289 286 289 283 269 279 279
338 25 342 343 346 4 51 63 314 271 300 266 302 296 341 341 333 326 322 322 327 332 327 324 322 328 324 316 313 307 289 297 292 297 298 297 293 292 286 287 277 276 280 292
47 36 140 200 241 262 341 347 10 54 64 285 271 305 332 339 326 320 317 320 324 323 320 316 327 321 318 312 309 303 304 302 303 301 299 293 298 295 289 288 291 298 310 303
84 117 11 294 296 302 323 29 36 58 297 128 309 302 325 321 315 311 314 319 322 321 322 318 325 320 319 315 314 313 308 308 305 304 302 304 295 302 306 310 307 303 301 300
18 251 7 284 324 345 342 29 13 351 338 304 312 311 314 311 318 321 325 320 319 322 315 320 319 319 317 312 318 312 311 309 309 310 304 304 308 307 309 308 308 308 303 300
73 356 40 272 333 334 45 14 22 348 315 315 331 322 326 322 325 327 321 317 317 318 318 318 315 313 313 312 313 310 311 311 312 313 315 313 309 304 308 311 312 307 304 303
116 24 72 276 337 42 173 19 345 345 323 28 350 335 319 319 316 315 310 319 318 318 315 312 311 310 312 313 311 307 312 318 319 309 311 310 313 308 312 312 308 308 307 304
78 89 348 92 230 285 1 356 350 335 315 19 343 328 324 324 318 311 318 319 315 313 310 308 312 314 315 313 314 315 324 310 313 308 311 314 318 315 315 314 310 313 309 309
71 80 108 32 85 275 229 341 347 330 286 359 335 322 321 326 329 319 321 318 317 315 313 319 319 317 316 317 321 325 314 314 312 323 312 316 311 311 314 307 317 316 306 307
19 13 150 273 252 293 351 3 344 2 306 317 315 313 318 314 295 298 306 310 312 314 321 321 320 317 318 326 317 313 311 313 315 310 312 311 312 312 307 312 309 302 300 336
136 112 265 44 29 329 359 353 1 293 315 314 312 309 309 307 309 311 313 316 321 325 326 327 322 326 322 324 321 317 313 313 309 308 310 312 312 309 314 312 319 342 37 60
12 173 198 164 225 274 6 309 270 311 312 311 308 309 308 308 309 317 318 323 326 326 326 328 332 324 324 327 324 317 315 312 308 308 309 314 311 311 313 319 336 59 47 64
321 148 196 37 309 304 319 322 321 319 314 309 310 309 309 313 318 324 327 328 328 328 331 334 330 329 325 328 326 319 315 313 310 314 316 319 319 331 341 5 54 69 63 73
214 35 317 278 304 308 253 327 318 319 317 314 316 318 321 331 332 333 330 330 328 333 332 337 330 328 328 328 326 321 319 322 339 341 323 331 335 344 38 60 56 60 54 79
81 56 70 257 276 250 295 321 316 321 320 317 322 324 334 335 336 333 331 328 334 334 337 334 331 329 330 328 326 327 329 339 348 352 358 353 355 48 61 74 66 68 75 81